sat.trackr.live / text

‹ back to catalog

STARLINK-2470

NORAD 48334 · 2021-036BL

PAYLOAD ACTIVE UNKNOWN

§ Identity

Operator
Country
US
Launch date
2021-04-29
Launch site
AFETR
Launch vehicle
Mass (kg)
RCS (m²)

Purposes: comms

External: N2YO · Heavens-Above · Gunter

§ Orbital elements

Epoch: 2026-09-09T21:45:24.736320Z

Period
94.01 min
Inclination
53.1585°
Eccentricity
0.0001265
Mean motion
15.31717228 rev/d
Perigee alt
469.8 km
Apogee alt
471.6 km
Semi-major
6,848.8 km
B*
7.3632e-6
RAAN
323.7282°
Arg perigee
92.5799°
Mean anomaly
267.5347°
Rev number
29,627

§ Raw data

STARLINK-24701 48334U 21036BL  26252.90653630 -.00000137  00000+0  73632-5 0  99902 48334  53.1585 323.7282 0001265  92.5799 267.5347 15.31717228296270

JSON: /api/v1/satellites/48334 · /tle

For live sub-satellite position, see the globe view (requires WebGL).

§ Visibility from observer

Set your observer location to see the next 7 days of passes ≥ 10°. The values pass through the URL so the page stays shareable.

No JS? Fill the form by hand. The geolocation button needs JavaScript.